Location: Unspecified
(40.9447°N, 78.9903°W)
Time: 23:47:24
(UTC-04:00)

Okean 3 - Visible Passes

Search period start: 26 July 2021 00:00
Search period end: 05 August 2021 00:00
Orbit: 577 x 599 km, 82.5° (Epoch: 26 July)

Date Brightness Start Highest point End Pass type
(mag) Time Alt. Az. Time Alt. Az. Time Alt. Az.
26 Jul 4.4 02:23:32 10° N 02:26:55 47° NE 02:26:55 47° NE visible
26 Jul 5.9 04:03:12 10° WNW 04:03:24 10° WNW 04:03:24 10° WNW visible
27 Jul 4.3 02:31:07 10° N 02:34:14 47° N 02:34:14 47° N visible
28 Jul 6.2 01:04:08 10° NE 01:05:05 11° ENE 01:05:05 11° ENE visible
28 Jul 4.6 02:38:48 10° NNW 02:41:34 37° NNW 02:41:34 37° NNW visible
29 Jul 5.9 01:10:30 10° NNE 01:12:26 15° ENE 01:12:26 15° ENE visible
29 Jul 5.1 02:46:36 10° NNW 02:48:56 27° NW 02:48:56 27° NW visible
30 Jul 5.6 01:17:32 10° NNE 01:19:48 21° NE 01:19:48 21° NE visible
30 Jul 5.5 02:54:32 10° NNW 02:56:18 20° NW 02:56:18 20° NW visible
31 Jul 5.4 01:24:49 10° N 01:27:12 26° NE 01:27:12 26° NE visible
31 Jul 5.8 03:02:40 10° NW 03:03:41 14° NW 03:03:41 14° NW visible
01 Aug 5.3 01:32:14 10° N 01:34:35 29° NNE 01:34:35 29° NNE visible
02 Aug 5.3 01:39:46 10° N 01:42:00 30° N 01:42:00 30° N visible
03 Aug 5.4 01:47:25 10° NNW 01:49:25 27° NNW 01:49:25 27° NNW visible
04 Aug 6.1 00:19:27 10° NE 00:20:21 12° NE 00:20:21 12° NE visible
04 Aug 5.6 01:55:10 10° NNW 01:56:51 22° NNW 01:56:51 22° NNW visible
